Terminal Aerodrome Forecast
Issued by NWS

Home | Current Version | Previous Version | Text Only | Print | Product List | Glossary On
Versions: 1 2 3 4 5 6 7 8 9 10 11 12 13
000
FTUS46 KMTR 191000 AAA
TAFSTS
TAF AMD
KSTS 191056Z 1911/2006 VRB03KT 1SM BR OVC002
     FM191800 22005KT P6SM SKC
     FM192200 20008KT P6SM SKC
     FM200300 VRB03KT P6SM SKC=

USA.gov is the U.S. government's official web portal to all federal, state and local government web resources and services.